Regional Weather Roundup
Issued by NWS

Home | Current Version | Previous Version | Graphics & Text | Print | Product List | Glossary On
Versions: 1 2 3 4 5 6 7 8 9 10 11 12 13 14 15 16 17 18 19 20 21 22 23 24 25 26 27 28 29 30 31 32 33 34 35 36 37 38 39 40 41 42 43 44 45 46 47 48 49 50
000
ASUS45 KTFX 050310
RWRMT
MONTANA REGIONAL WEATHER ROUNDUP
NATIONAL WEATHER SERVICE GREAT FALLS MT
900 PM MDT SAT JUL 04 2015

NOTE: "FAIR" INDICATES FEW OR NO CLOUDS BELOW 12000 FEET WITH NO
SIGNIFICANT WEATHER AND/OR OBSTRUCTIONS TO VISIBILITY.

MTZ001>007-043-050400-
WEST OF THE DIVIDE

CITY           SKY/WX    TMP DP  RH WIND       PRES   REMARKS
KALISPELL      CLEAR     87  44  22 W5        29.73R
MISSOULA       MOCLDY    90  35  14 NW12      29.76R
BUTTE          CLOUDY    84  34  16 W5        29.92R
MULLAN PASS    CLEAR     72  42  34 VRB5      30.01R
DEER LODGE       N/A     79  43  27 CALM      29.89R
EUREKA           N/A     90  46  22 CALM      29.72R
HAMILTON         N/A     81  48  32 SE5       29.79R
LIBBY            N/A     88  45  22 CALM      29.73R
RONAN            N/A     85  47  26 W5        29.83R
$$

MTZ008-052>055-050400-
SOUTHWEST MONTANA

CITY           SKY/WX    TMP DP  RH WIND       PRES   REMARKS
BOZEMAN        MOCLDY    77  49  37 SE9       29.82S
DILLON         CLOUDY    78  44  29 NE3       29.87R
W YELLOWSTONE  CLOUDY    73  41  31 SW8       30.04S
THREE FORKS      N/A     79  56  45 W3        29.82S
TWIN BRIDGES     N/A     85  32  15 N5        29.87S
$$

MTZ009-010-012-014-046-048-049-054-050400-
EAST SLOPES AND CENTRAL MONTANA

CITY           SKY/WX    TMP DP  RH WIND       PRES   REMARKS
CUT BANK       PTCLDY    71  49  45 NE24G30   29.86R
GREAT FALLS    PTCLDY    80  48  32 NE7       29.77S
MALMSTROM AFB  PTCLDY    78  51  39 E6        29.77R
HELENA         MOCLDY    85  51  31 N7        29.77R
CONRAD           N/A     79  60  51 N1        29.85R
$$

MTZ011-013-016-021-045-047-050-051-050400-
NORTH CENTRAL MONTANA

CITY           SKY/WX    TMP DP  RH WIND       PRES   REMARKS
HAVRE          CLEAR     78  52  40 E15       29.73F
LEWISTOWN      PTCLDY    78  55  44 E13       29.85R
CHINOOK          N/A     77  52  41 E12       29.75F
FORT BENTON      N/A     82  54  36 E10G17    29.74S
$$

MTZ017>020-022>027-061-062-050400-
NORTHEAST MONTANA

CITY           SKY/WX    TMP DP  RH WIND       PRES   REMARKS
GLASGOW        CLEAR     76  51  41 NE13      29.79R
JORDAN           N/A     80  59  48 NE16      29.78R
SIDNEY         CLEAR     75  64  69 N10       29.77S
WOLF POINT     CLEAR     77  58  51 NE9       29.79R
PLENTYWOOD       N/A     70  57  64 N9        29.84R
POPLAR           N/A     75  63  64 NE8       29.79R
SCOBEY           N/A     70  52  52 N7        29.86R
$$

MTZ028>42-056>058-050400-
SOUTHCENTRAL AND SOUTHEAST MONTANA

CITY           SKY/WX    TMP DP  RH WIND       PRES   REMARKS
BAKER          PTCLDY    73  58  59 SE5       29.79R
BILLINGS       MOCLDY    86  44  23 NE12      29.79R
LIVINGSTON     MOCLDY    78  46  32 E10       29.85R
MILES CITY     CLEAR     80  55  42 SE6       29.73R
EKALAKA          N/A     72  54  53 SE7       29.81R
FORSYTH          N/A     88  54  31 E9        29.73R
LAUREL           N/A     84  46  26 N2        29.80R
ROUNDUP          N/A     83  52  34 N8        29.74R
$$

REGIONAL REPORTS...DAKOTAS

CITY           SKY/WX    TMP DP  RH WIND       PRES   REMARKS
WILLISTON      CLEAR     75  68  78 N12       29.77R
MINOT          TSTM      70  60  70 N15       29.75R
DICKINSON      PTCLDY    75  65  70 S6        29.74S
BEACH          FAIR      68  66  94 CALM      29.77S
CROSBY         MOCLDY    68  68 100 N7        29.82R
BISMARCK       CLOUDY    79  71  76 E5        29.74R
GRAND FORKS    CLOUDY    77  67  71 SE10      29.73R
FARGO          PTCLDY    78  65  63 S10       29.78R
BUFFALO SD       N/A     79  50  36 E10       29.72F
RAPID CITY     CLEAR     73  67  81 N3        29.81R
$$

REGIONAL REPORTS...WYOMING/IDAHO/WASHINGTON

CITY           SKY/WX    TMP DP  RH WIND       PRES   REMARKS
GILLETTE       CLEAR     73  50  44 S10       29.85R
SHERIDAN       PTCLDY    76  58  53 W6        29.81R
BUFFALO WY     PTCLDY    74  57  55 W7        29.90S
CODY           PTCLDY    84  43  23 N9        29.90R
YELLOWSTONE LA   N/A     68  41  37 CALM      30.17R
IDAHO FALLS    MOCLDY    84  46  26 S9        29.87S
SALMON         CLOUDY    79  54  41 CALM      29.77R
BOISE          MOCLDY    94  39  14 CALM      29.75S HX  90
SPOKANE        PTCLDY    95  41  15 W9        29.70S HX  91
$$

REGIONAL REPORTS...ALBERTA

CITY           SKY/WX    TMP DP  RH WIND       PRES   REMARKS
EDMONTON       CLEAR     59  41  51 NW16G23   30.01R
CALGARY        CLOUDY    55  46  71 N14       30.10R
LETHBRIDGE     LGT RAIN  57  55  94 N15G25    30.00R
MEDICINE HAT   LGT RAIN  59  54  82 N24G30    29.93R SMOKE
WATERTON GATE    N/A     54  50  87 N6          N/A
CARDSTON         N/A     54  54 100 N21G33      N/A
MILK RIVER       N/A     59  55  88 N32G43      N/A
ONEFOUR          N/A     55  54  94 N24G36      N/A
$$

REGIONAL REPORTS...SASKATCHEWAN

CITY           SKY/WX    TMP DP  RH WIND       PRES   REMARKS
SWIFT CURRENT  CLOUDY    68  46  45 NE10      29.87R HAZE
REGINA         MOCLDY    70  59  68 N8        29.83R SMOKE
SASKATOON      SMOKE     63  48  59 VRB2      29.88R VSB 1
CYPRESS HILLS    N/A     63  46  55 N6          N/A
VAL MARIE        N/A     68  52  56 NE9         N/A
ROCKGLEN         N/A     66  54  63 N8          N/A
ASSINIBOIA       N/A     61  45  55 NW10        N/A
$$


USA.gov is the U.S. government's official web portal to all federal, state and local government web resources and services.